| time (UTC) | temp C | wind direction | speed KPH | gust KPH | rain 1hr cm | rain 24hr cm | rain mn cm | humidity % | barometer mb |
| 20260507042546 | 6 | 6.4 | 12.9 | 0.00 | 1.09 | 0.00 | 99 | 1013.1 | |
| 20260507041544 | 6 | 6.4 | 14.5 | 0.00 | 1.12 | 0.00 | 99 | 1013.1 | |
| 20260507040541 | 6 | 6.4 | 16.1 | 0.00 | 1.12 | 0.00 | 99 | 1012.9 | |
| 20260507035539 | 6 | 8.0 | 12.9 | 0.00 | 1.14 | 0.00 | 99 | 1012.9 | |
| 20260507034536 | 6 | 8.0 | 12.9 | 0.00 | 1.14 | 0.00 | 99 | 1012.9 | |
| 20260507033534 | 6 | 6.4 | 14.5 | 0.00 | 1.17 | 0.00 | 99 | 1012.8 | |
| 20260507032531 | 6 | 6.4 | 12.9 | 0.00 | 1.19 | 0.00 | 99 | 1012.8 | |
| 20260507031529 | 6 | 4.8 | 9.7 | 0.00 | 1.22 | 0.00 | 99 | 1012.7 | |
| 20260507030526 | 6 | 4.8 | 9.7 | 0.00 | 1.27 | 0.00 | 99 | 1012.6 | |
| 20260507025523 | 6 | 6.4 | 12.9 | 0.00 | 1.27 | 0.00 | 99 | 1012.4 | |
| 20260507024521 | 7 | 4.8 | 11.3 | 0.00 | 1.30 | 0.00 | 99 | 1012.5 | |
| 20260507023518 | 7 | 6.4 | 12.9 | 0.00 | 1.32 | 0.00 | 99 | 1012.4 | |
| 20260507022516 | 7 | 3.2 | 9.7 | 0.00 | 1.37 | 0.00 | 99 | 1012.4 | |
| 20260507021614 | 7 | 4.8 | 9.7 | 0.00 | 1.42 | 0.00 | 99 | 1012.3 | |
| 20260507020611 | 7 | 4.8 | 12.9 | 0.00 | 1.45 | 0.00 | 99 | 1012.2 | |
| 20260507015609 | 7 | 4.8 | 12.9 | 0.00 | 1.45 | 0.00 | 99 | 1012.1 | |
| 20260507014606 | 7 | 4.8 | 11.3 | 0.00 | 1.50 | 0.00 | 99 | 1012.0 | |
| 20260507013604 | 7 | 4.8 | 9.7 | 0.00 | 1.52 | 0.00 | 99 | 1012.0 | |
| 20260507012601 | 7 | 4.8 | 12.9 | 0.00 | 1.60 | 0.00 | 99 | 1012.0 | |
| 20260507011558 | 7 | 4.8 | 11.3 | 0.00 | 1.63 | 0.00 | 99 | 1011.9 | |
| 20260507010556 | 7 | 4.8 | 12.9 | 0.00 | 1.65 | 0.00 | 99 | 1011.9 | |
| 20260507005553 | 7 | 3.2 | 8.0 | 0.00 | 1.68 | 0.00 | 99 | 1011.9 | |
| 20260507004551 | 7 | 9.7 | 17.7 | 0.00 | 1.70 | 0.00 | 98 | 1011.7 | |
| 20260507003548 | 7 | 6.4 | 16.1 | 0.00 | 1.75 | 0.00 | 99 | 1011.8 | |
| 20260507002546 | 6 | 3.2 | 11.3 | 0.00 | 1.78 | 0.00 | 99 | 1011.8 | |
| 20260507001543 | 6 | 4.8 | 11.3 | 0.00 | 1.80 | 0.00 | 99 | 1011.7 | |
| 20260507000541 | 6 | 4.8 | 12.9 | 0.00 | 1.85 | 0.00 | 99 | 1011.8 | |
| 20260506235538 | 6 | 6.4 | 14.5 | 0.00 | 1.88 | 0.00 | 99 | 1011.7 | |
| 20260506234536 | 6 | 6.4 | 12.9 | 0.00 | 1.93 | 0.00 | 99 | 1011.8 | |
| 20260506233533 | 6 | 6.4 | 17.7 | 0.00 | 1.98 | 0.00 | 99 | 1011.8 | |
| 20260506232531 | 6 | 9.7 | 19.3 | 0.00 | 2.01 | 0.00 | 99 | 1011.6 | |
| 20260506231528 | 6 | 8.0 | 17.7 | 0.00 | 2.06 | 0.00 | 99 | 1011.6 | |
| 20260506230526 | 6 | 8.0 | 17.7 | 0.00 | 2.18 | 0.00 | 99 | 1011.5 | |
| 20260506225523 | 6 | 11.3 | 20.9 | 0.00 | 2.26 | 0.00 | 99 | 1011.5 | |
| 20260506224520 | 6 | 9.7 | 17.7 | 0.00 | 2.31 | 0.00 | 99 | 1011.4 | |
| 20260506223518 | 6 | 9.7 | 17.7 | 0.00 | 2.34 | 0.00 | 99 | 1011.2 | |
| 20260506222515 | 6 | 9.7 | 16.1 | 0.00 | 2.36 | 0.00 | 99 | 1011.2 | |
| 20260506221613 | 6 | 9.7 | 16.1 | 0.00 | 2.39 | 0.00 | 99 | 1011.2 | |
| 20260506220610 | 6 | 6.4 | 11.3 | 0.00 | 2.44 | 0.00 | 99 | 1011.2 | |
| 20260506215608 | 6 | 8.0 | 16.1 | 0.00 | 2.44 | 2.44 | 99 | 1011.2 | |
| 20260506214605 | 6 | 6.4 | 12.9 | 0.00 | 2.46 | 2.44 | 99 | 1011.2 | |
| 20260506213603 | 6 | 4.8 | 12.9 | 0.00 | 2.46 | 2.44 | 99 | 1010.9 | |
| 20260506212600 | 6 | 4.8 | 12.9 | 0.00 | 2.46 | 2.44 | 99 | 1010.9 | |
| 20260506211558 | 6 | 4.8 | 9.7 | 0.00 | 2.49 | 2.44 | 99 | 1010.9 | |
| 20260506210555 | 6 | 3.2 | 9.7 | 0.00 | 2.49 | 2.44 | 99 | 1010.9 | |
| 20260506205553 | 6 | 3.2 | 12.9 | 0.00 | 2.49 | 2.44 | 99 | 1010.8 | |
| 20260506204550 | 6 | 4.8 | 9.7 | 0.00 | 2.49 | 2.44 | 99 | 1010.7 | |
| 20260506203548 | 6 | 4.8 | 9.7 | 0.00 | 2.49 | 2.44 | 99 | 1010.7 | |
| 20260506202545 | 6 | 3.2 | 6.4 | 0.00 | 2.49 | 2.44 | 99 | 1010.5 | |
| 20260506201542 | 6 | 4.8 | 12.9 | 0.00 | 2.49 | 2.44 | 99 | 1010.6 | |
| 20260506200540 | 6 | 3.2 | 11.3 | 0.00 | 2.49 | 2.44 | 99 | 1010.6 | |
| 20260506195538 | 6 | 3.2 | 11.3 | 0.00 | 2.49 | 2.44 | 99 | 1010.4 | |
| 20260506194535 | 6 | 3.2 | 9.7 | 0.00 | 2.49 | 2.44 | 99 | 1010.3 | |
| 20260506193532 | 6 | 3.2 | 6.4 | 0.00 | 2.49 | 2.44 | 99 | 1010.4 | |
| 20260506192530 | 6 | 3.2 | 9.7 | 0.00 | 2.49 | 2.44 | 99 | 1010.2 | |
| 20260506191527 | 6 | 3.2 | 11.3 | 0.00 | 2.49 | 2.44 | 99 | 1010.1 | |
| 20260506190525 | 6 | 4.8 | 11.3 | 0.00 | 2.49 | 2.44 | 99 | 1009.9 | |
| 20260506185522 | 6 | 4.8 | 12.9 | 0.00 | 2.49 | 2.44 | 99 | 1009.8 | |
| 20260506184520 | 7 | 4.8 | 12.9 | 0.00 | 2.49 | 2.44 | 99 | 1009.7 | |
| 20260506183517 | 7 | 4.8 | 12.9 | 0.00 | 2.49 | 2.44 | 99 | 1009.7 | |
| 20260506182515 | 7 | 4.8 | 14.5 | 0.00 | 2.49 | 2.44 | 99 | 1009.4 | |
| 20260506181612 | 7 | 3.2 | 9.7 | 0.00 | 2.49 | 2.44 | 99 | 1009.3 | |
| 20260506180610 | 7 | 4.8 | 12.9 | 0.00 | 2.49 | 2.44 | 99 | 1009.1 | |
| 20260506175607 | 7 | 4.8 | 12.9 | 0.00 | 2.49 | 2.44 | 99 | 1009.1 | |
| 20260506174605 | 7 | 4.8 | 16.1 | 0.00 | 2.49 | 2.44 | 99 | 1009.0 | |
| 20260506173602 | 7 | 4.8 | 12.9 | 0.00 | 2.49 | 2.44 | 99 | 1008.9 | |
| 20260506172600 | 7 | 3.2 | 11.3 | 0.03 | 2.49 | 2.44 | 99 | 1008.8 | |
| 20260506171557 | 7 | 1.6 | 6.4 | 0.03 | 2.49 | 2.44 | 99 | 1008.8 | |
| 20260506170555 | 7 | 4.8 | 12.9 | 0.03 | 2.49 | 2.44 | 99 | 1008.7 | |
| 20260506165552 | 7 | 4.8 | 12.9 | 0.05 | 2.49 | 2.44 | 99 | 1008.6 | |
| 20260506164550 | 7 | 3.2 | 8.0 | 0.05 | 2.49 | 2.44 | 99 | 1008.4 | |
| 20260506163547 | 7 | 4.8 | 11.3 | 0.05 | 2.49 | 2.44 | 99 | 1008.4 | |
| 20260506162545 | 7 | 4.8 | 12.9 | 0.05 | 2.46 | 2.39 | 99 | 1008.5 | |
| 20260506161542 | 7 | 4.8 | 14.5 | 0.05 | 2.46 | 2.39 | 99 | 1008.4 | |
| 20260506160540 | 7 | 3.2 | 12.9 | 0.05 | 2.46 | 2.39 | 99 | 1008.4 | |
| 20260506155537 | 7 | 3.2 | 12.9 | 0.03 | 2.44 | 2.36 | 99 | 1008.4 | |
| 20260506154534 | 7 | 1.6 | 8.0 | 0.03 | 2.44 | 2.36 | 99 | 1008.4 | |
| 20260506153532 | 7 | 1.6 | 6.4 | 0.03 | 2.44 | 2.36 | 99 | 1008.3 | |
| 20260506152529 | 7 | 3.2 | 9.7 | 0.00 | 2.39 | 2.34 | 99 | 1008.3 | |
| 20260506151527 | 7 | 3.2 | 11.3 | 0.00 | 2.39 | 2.34 | 99 | 1008.3 | |
| 20260506150524 | 7 | 1.6 | 8.0 | 0.00 | 2.39 | 2.34 | 99 | 1008.2 | |
| 20260506145522 | 7 | 3.2 | 6.4 | 0.00 | 2.39 | 2.34 | 99 | 1008.1 | |
| 20260506144519 | 7 | 4.8 | 12.9 | 0.00 | 2.39 | 2.34 | 99 | 1008.1 | |
| 20260506143517 | 7 | 1.6 | 6.4 | 0.00 | 2.39 | 2.34 | 99 | 1008.0 | |
| 20260506142614 | 7 | 1.6 | 6.4 | 0.03 | 2.39 | 2.34 | 99 | 1008.0 | |
| 20260506141612 | 7 | 3.2 | 9.7 | 0.03 | 2.39 | 2.34 | 99 | 1008.1 | |
| 20260506140609 | 7 | 3.2 | 9.7 | 0.03 | 2.39 | 2.34 | 99 | 1008.0 | |
| 20260506135607 | 7 | 1.6 | 9.7 | 0.03 | 2.39 | 2.34 | 99 | 1008.1 | |
| 20260506134604 | 7 | 3.2 | 9.7 | 0.03 | 2.39 | 2.34 | 99 | 1008.0 | |
| 20260506133602 | 7 | 3.2 | 8.0 | 0.03 | 2.39 | 2.34 | 99 | 1007.9 | |
| 20260506132559 | 7 | 3.2 | 12.9 | 0.00 | 2.36 | 2.31 | 99 | 1007.9 | |
| 20260506131557 | 7 | 3.2 | 11.3 | 0.03 | 2.36 | 2.31 | 99 | 1008.0 | |
| 20260506130554 | 7 | 3.2 | 11.3 | 0.05 | 2.36 | 2.31 | 99 | 1007.8 | |
| 20260506125552 | 7 | 4.8 | 11.3 | 0.05 | 2.36 | 2.31 | 99 | 1007.8 | |
| 20260506124549 | 7 | 3.2 | 12.9 | 0.10 | 2.36 | 2.31 | 99 | 1007.7 | |
| 20260506123547 | 7 | 4.8 | 11.3 | 0.10 | 2.36 | 2.31 | 99 | 1007.7 | |
| 20260506122544 | 7 | 3.2 | 9.7 | 0.13 | 2.36 | 2.31 | 99 | 1007.6 | |
| 20260506121542 | 7 | 4.8 | 12.9 | 0.13 | 2.34 | 2.29 | 99 | 1007.7 | |
| 20260506120539 | 7 | 6.4 | 12.9 | 0.10 | 2.31 | 2.26 | 99 | 1007.5 | |
| 20260506115537 | 7 | 4.8 | 12.9 | 0.13 | 2.31 | 2.26 | 99 | 1007.5 | |
| 20260506114534 | 7 | 3.2 | 12.9 | 0.13 | 2.29 | 2.21 | 99 | 1007.3 | |
| 20260506113532 | 7 | 3.2 | 11.3 | 0.15 | 2.29 | 2.21 | 99 | 1007.3 | |
| 20260506112529 | 7 | 4.8 | 11.3 | 0.15 | 2.26 | 2.18 | 99 | 1007.4 | |
| 20260506111527 | 7 | 3.2 | 11.3 | 0.15 | 2.21 | 2.16 | 99 | 1007.3 | |
| 20260506110524 | 7 | 3.2 | 8.0 | 0.18 | 2.21 | 2.16 | 99 | 1007.2 | |
| 20260506105522 | 7 | 3.2 | 9.7 | 0.15 | 2.18 | 2.13 | 99 | 1007.2 | |
| 20260506104519 | 7 | 3.2 | 12.9 | 0.13 | 2.16 | 2.11 | 99 | 1007.2 | |
| 20260506103516 | 7 | 4.8 | 11.3 | 0.13 | 2.13 | 2.06 | 99 | 1007.1 | |
| 20260506102614 | 7 | 3.2 | 16.1 | 0.10 | 2.11 | 2.03 | 99 | 1007.0 | |
| 20260506101612 | 7 | 4.8 | 16.1 | 0.10 | 2.06 | 2.01 | 99 | 1006.9 | |
| 20260506100609 | 7 | 3.2 | 9.7 | 0.10 | 2.03 | 1.98 | 99 | 1006.8 | |
| 20260506095606 | 7 | 4.8 | 12.9 | 0.13 | 2.03 | 1.98 | 99 | 1006.7 | |
| 20260506094604 | 7 | 4.8 | 11.3 | 0.15 | 2.03 | 1.98 | 99 | 1006.7 | |
| 20260506093601 | 7 | 4.8 | 12.9 | 0.13 | 2.01 | 1.96 | 99 | 1006.7 | |
| 20260506092559 | 7 | 6.4 | 12.9 | 0.13 | 2.01 | 1.96 | 99 | 1006.6 | |
| 20260506091556 | 7 | 4.8 | 11.3 | 0.10 | 1.98 | 1.93 | 99 | 1006.5 | |
| 20260506090554 | 7 | 4.8 | 12.9 | 0.05 | 1.96 | 1.88 | 99 | 1006.4 | |
| 20260506085551 | 7 | 3.2 | 8.0 | 0.03 | 1.93 | 1.85 | 99 | 1006.5 | |
| 20260506084549 | 8 | 3.2 | 11.3 | 0.00 | 1.88 | 1.83 | 99 | 1006.3 | |
| 20260506083546 | 8 | 4.8 | 12.9 | 0.03 | 1.88 | 1.83 | 99 | 1006.4 | |
| 20260506082544 | 7 | 3.2 | 8.0 | 0.03 | 1.88 | 1.83 | 99 | 1006.2 | |
| 20260506081541 | 7 | 4.8 | 12.9 | 0.05 | 1.88 | 1.83 | 99 | 1006.3 | |
| 20260506080539 | 8 | 4.8 | 12.9 | 0.10 | 1.88 | 1.83 | 99 | 1006.3 | |
| 20260506072529 | 8 | 6.4 | 16.1 | 0.18 | 1.85 | 1.80 | 99 | 1006.0 | |
| 20260506071526 | 8 | 3.2 | 8.0 | 0.18 | 1.83 | 1.78 | 99 | 1006.0 | |
| 20260506070524 | 8 | 1.6 | 8.0 | 0.18 | 1.80 | 1.75 | 99 | 1006.0 | |
| 20260506061611 | 8 | 4.8 | 12.9 | 0.13 | 1.96 | 1.60 | 99 | 1005.7 | |
| 20260506060609 | 8 | 6.4 | 14.5 | 0.13 | 1.98 | 1.55 | 99 | 1005.6 | |
| 20260506050553 | 8 | 4.8 | 12.9 | 0.13 | 2.26 | 1.45 | 99 | 1005.7 | |
| 20260506044548 | 8 | 3.2 | 11.3 | 0.13 | 2.44 | 1.42 | 99 | 1005.6 | |
| 20260506043546 | 8 | 4.8 | 12.9 | 0.13 | 2.44 | 1.37 | 99 | 1005.6 |